[[{"header":{"parameterUnit":"m.s-1","parameterCategory":1,"la1":30.2991,"la2":30.254,"lo1":-89.0895,"lo2":-89.0444,"dy":0.0017,"dx":0.0017,"nx":28,"ny":28,"refTime":"2024-08-12T21:00:00:Z","depth":0,"parameterNumber":2,"parameterNumberName":"U-component_of_WINDS"},"data":[0,0,0,0,0,0,0,0,0,0,0,0,0,0,0,0,0,0,0,0,0,0,0,0,0,0,0,0,0,0,0,0,0,0,0,0,0,0,0,0,0,0,0,0,0,0,0,0,0,0,0,0,0,0,0,0,0,0,3.6254,3.6256,0,3.64,3.6402,3.6404,3.6354,3.635,3.6347,3.6344,3.6496,3.6502,3.6509,0,0,0,0,0,0,0,0,0,0,0,0,0,3.5933,3.5939,3.6254,3.6256,3.6258,3.64,3.6402,3.6404,3.6354,3.635,3.6346,3.6343,3.6493,3.6502,3.651,0,0,0,0,0,0,0,0,0,0,0,0,0,3.6075,3.5941,3.6254,3.625,3.6251,3.64,3.6402,3.6405,3.6355,3.635,3.6345,3.6341,3.6491,3.6501,3.6511,3.6673,0,0,3.6543,3.6548,0,0,0,0,0,0,0,0,3.6067,3.6087,3.6249,3.625,3.6252,3.6354,3.6344,3.6495,3.6356,3.6316,3.6344,3.6338,3.6452,3.6466,3.6504,3.668,3.6687,3.6544,3.6551,3.6555,3.6558,0,0,0,0,0,0,0,3.6057,3.608,3.6312,3.6251,3.6253,3.6241,3.6256,3.6373,3.6409,3.6319,3.6315,3.6333,3.6452,3.6494,3.6507,3.6689,3.6544,3.6553,3.656,3.6564,3.7005,3.701,0,0,0,0,0,0,3.6046,3.6073,3.6307,3.6316,3.6146,3.6251,3.6268,3.6326,3.6408,3.6416,3.6337,3.633,3.6478,3.6495,3.6512,3.6707,3.6555,3.6565,3.6571,3.7,3.7006,3.7012,0,0,0,0,0,0,3.604,3.6068,3.6302,3.6194,3.6223,3.6262,3.6328,3.6331,3.6373,3.6422,3.6428,3.6373,3.6475,3.6497,3.6633,3.6711,3.657,3.658,3.6993,3.7002,3.7009,3.7097,0,0,0,0,0,0,3.6031,3.6066,3.6127,3.6195,3.6228,3.642,3.6332,3.6338,3.6391,3.6383,3.6457,3.6465,3.6473,3.6618,3.6644,3.6723,3.6588,3.6987,3.6997,3.7007,3.7088,3.7108,3.7124,0,0,0,0,0,3.6019,3.6147,3.6131,3.6159,3.6306,3.6425,3.6443,3.645,3.6397,3.646,3.6491,3.6462,3.6699,3.6632,3.6661,3.6745,3.6982,3.6994,3.7006,3.7079,3.7104,3.7124,0,0,0,0,0,0,3.6088,3.6156,3.6139,3.6292,3.6353,3.6416,3.6495,3.6476,3.6553,3.6543,3.6548,3.6565,3.6705,3.6738,3.6663,3.6906,3.6832,3.6851,3.6878,3.6902,3.692,3.6909,3.6597,0,0,0,0,0,3.6121,3.621,3.6265,3.6395,3.6427,3.6456,3.6507,3.6507,3.6571,3.6596,3.6638,3.6701,3.6789,3.6847,3.6932,3.7092,3.7108,3.7164,3.7183,3.7198,3.7213,3.73,3.7326,3.7052,3.7052,3.7051,0,0,3.619,3.6238,3.6294,3.641,3.6457,3.655,3.6478,3.658,3.6649,3.6612,3.6742,3.6775,3.6846,3.6995,3.7063,3.7027,3.7293,3.7213,3.7224,3.7232,3.7316,3.7341,3.7364,3.706,3.7059,3.7057,0,0,3.6362,3.6408,3.6521,3.657,3.6642,3.666,3.6687,3.6754,3.6774,3.6905,3.6879,3.6961,3.7114,3.7165,3.7211,3.7404,3.738,3.7431,3.7527,3.7612,3.7633,3.7652,3.7721,3.7745,3.7447,3.7447,3.7447,0,3.6439,3.6578,3.6582,3.6686,3.6738,3.6708,3.6822,3.6869,3.6966,3.7002,3.6961,3.7151,3.7197,3.7357,3.7404,3.7443,3.7474,3.7422,3.763,3.7649,3.7667,3.7732,3.7758,3.7453,3.7452,3.7451,3.7451,0,3.6669,3.6766,3.6848,3.6941,3.7002,3.7111,3.7131,3.7193,3.7187,3.721,3.7344,3.7398,3.7492,3.753,3.7526,3.769,3.7666,3.7627,3.7554,3.7699,3.776,3.7785,3.7461,3.7459,3.7457,3.7456,0,0,3.6889,3.6982,3.7012,3.7054,3.7131,3.7206,3.7313,3.7405,3.7457,3.7525,3.7615,3.7744,3.7709,3.7762,3.7763,3.7838,3.7986,3.779,3.7792,3.7824,3.8169,3.8197,3.8226,3.7971,3.7975,3.7979,3.8163,0,3.7068,3.7256,3.7262,3.7434,3.7524,3.7497,3.759,3.7648,3.7672,3.7752,3.7779,3.787,3.7817,3.7848,3.7921,3.7952,3.8055,3.7939,3.8055,3.8059,3.8037,3.8258,3.8288,3.8459,3.8187,3.8191,3.8194,0,3.7302,3.7376,3.7556,3.762,3.7658,3.7742,3.7826,3.7902,3.7967,3.7979,3.8038,3.8028,3.8138,3.8061,3.8213,3.8134,3.8182,3.8204,3.8211,3.8222,3.8135,3.8274,3.8514,3.8539,3.8232,3.8229,3.8226,0,3.7444,3.7589,3.7715,3.7752,3.7829,3.7889,3.7924,3.7984,3.8038,3.8112,3.8147,3.8233,3.828,3.8347,3.8361,3.8304,3.8513,3.8437,3.8527,3.8526,3.8572,3.8568,3.8822,3.8603,3.8603,3.8602,3.8602,0,3.7643,3.7755,3.778,3.7858,3.7982,3.7988,3.8111,3.8142,3.8195,3.8279,3.8261,3.834,3.8354,3.8436,3.8448,3.8571,3.8593,3.8606,3.8608,3.8608,3.8606,3.8638,3.8627,3.8609,3.8608,3.8606,3.8605,0,3.7823,3.7844,3.798,3.8042,3.806,3.8149,3.8202,3.8277,3.8299,3.8405,3.843,3.8465,3.8561,3.8581,3.8695,3.8703,3.8849,3.884,3.8827,3.8826,3.8914,3.8905,3.9197,3.9235,3.8992,3.8994,3.8996,0,3.7948,3.8033,3.8104,3.8158,3.8196,3.8284,3.8339,3.8348,3.8407,3.8486,3.8552,3.8645,3.872,3.8875,3.891,3.8997,3.8989,3.9085,3.9002,3.8999,3.899,3.8984,3.8993,3.9101,3.9104,3.9106,3.9107,0,3.8168,3.8174,3.8254,3.8338,3.8404,3.8471,3.8534,3.858,3.8598,3.8664,3.8761,3.882,3.8935,3.9028,3.9115,3.9151,3.9133,3.9133,3.9158,3.9159,3.9148,3.9154,3.887,3.9127,3.9125,3.9123,3.9122,3.9121,3.8325,3.8398,3.846,3.8549,3.8597,3.8657,3.873,3.876,3.8841,3.8935,3.8936,3.9042,3.9105,3.9219,3.9261,3.9344,3.9314,3.9351,3.936,3.9369,3.9376,3.9135,3.936,3.936,3.9359,3.9359,3.9358,0,3.8543,3.8581,3.8663,3.8752,3.8822,3.8797,3.8866,3.8927,3.902,3.9079,3.9153,3.9265,3.9355,3.9397,3.9486,3.9545,3.9538,3.9568,3.9563,3.9572,3.9398,3.9367,3.9571,3.9571,3.9571,3.9571,3.9571,3.9571,3.8665,3.8789,3.8802,3.895,3.8987,3.909,3.9131,3.9186,3.9233,3.9358,3.9432,3.9459,3.9511,3.9604,3.9685,3.9695,3.9729,3.9762,3.9768,3.9606,3.9584,3.9563,3.9534,3.977,3.977,3.9935,3.9936,3.9937]},{"header":{"parameterUnit":"m.s-1","parameterCategory":1,"la1":30.2991,"la2":30.254,"lo1":-89.0895,"lo2":-89.0444,"dy":0.0017,"dx":0.0017,"nx":28,"ny":28,"refTime":"2024-08-12T21:00:00:Z","depth":0,"parameterNumber":3,"parameterNumberName":"V-component_of_WINDS"},"data":[0,0,0,0,0,0,0,0,0,0,0,0,0,0,0,0,0,0,0,0,0,0,0,0,0,0,0,0,0,0,0,0,0,0,0,0,0,0,0,0,0,0,0,0,0,0,0,0,0,0,0,0,0,0,0,0,0,0,-0.782,-0.782,0,-0.7803,-0.7803,-0.7803,-0.7782,-0.7782,-0.7782,-0.7781,-0.7763,-0.7763,-0.7763,0,0,0,0,0,0,0,0,0,0,0,0,0,-0.7836,-0.7836,-0.782,-0.782,-0.782,-0.7803,-0.7803,-0.7803,-0.7782,-0.7782,-0.7782,-0.7781,-0.7763,-0.7763,-0.7763,0,0,0,0,0,0,0,0,0,0,0,0,0,-0.7825,-0.7836,-0.782,-0.7808,-0.7806,-0.7803,-0.7803,-0.7803,-0.7782,-0.7782,-0.7782,-0.7781,-0.7764,-0.7763,-0.7763,-0.7771,0,0,-0.7762,-0.7762,0,0,0,0,0,0,0,0,-0.7826,-0.7824,-0.781,-0.7809,-0.7807,-0.7794,-0.7802,-0.7792,-0.7783,-0.7792,-0.7781,-0.7781,-0.7774,-0.7773,-0.7771,-0.777,-0.7769,-0.7762,-0.7762,-0.7762,-0.7762,0,0,0,0,0,0,0,-0.7826,-0.7825,-0.7813,-0.781,-0.7808,-0.7803,-0.7801,-0.78,-0.7786,-0.7791,-0.7789,-0.7788,-0.7773,-0.7771,-0.777,-0.7769,-0.7762,-0.7762,-0.7762,-0.7762,-0.7774,-0.7774,0,0,0,0,0,0,-0.7829,-0.7826,-0.7814,-0.7813,-0.7815,-0.7803,-0.7801,-0.7799,-0.7786,-0.7783,-0.7788,-0.7787,-0.7772,-0.777,-0.7769,-0.7777,-0.7762,-0.7762,-0.7761,-0.7773,-0.7774,-0.7774,0,0,0,0,0,0,-0.7829,-0.7828,-0.7815,-0.7819,-0.7817,-0.7803,-0.7801,-0.7799,-0.7797,-0.7783,-0.7781,-0.7788,-0.7771,-0.777,-0.7771,-0.7776,-0.7761,-0.7761,-0.7773,-0.7773,-0.7774,-0.7794,0,0,0,0,0,0,-0.783,-0.7828,-0.7831,-0.7819,-0.7817,-0.7816,-0.7802,-0.7799,-0.7796,-0.7794,-0.7783,-0.7781,-0.7771,-0.7771,-0.777,-0.7776,-0.7761,-0.7772,-0.7773,-0.7774,-0.7792,-0.7795,-0.7797,0,0,0,0,0,-0.7831,-0.7837,-0.7831,-0.783,-0.782,-0.7816,-0.7815,-0.7804,-0.7797,-0.7799,-0.7791,-0.7781,-0.7776,-0.7771,-0.777,-0.7776,-0.7772,-0.7773,-0.7774,-0.7791,-0.7794,-0.7797,0,0,0,0,0,0,-0.7849,-0.7835,-0.7829,-0.7831,-0.7825,-0.7813,-0.7816,-0.7807,-0.7803,-0.7801,-0.7787,-0.7785,-0.7788,-0.7782,-0.7777,-0.7783,-0.7772,-0.7773,-0.7786,-0.7789,-0.7791,-0.7792,-0.7761,0,0,0,0,0,-0.7854,-0.7853,-0.784,-0.7844,-0.7841,-0.7829,-0.7827,-0.7819,-0.7812,-0.781,-0.7801,-0.7795,-0.7792,-0.779,-0.7787,-0.7792,-0.7789,-0.7795,-0.7798,-0.78,-0.78,-0.7803,-0.7805,-0.7778,-0.7778,-0.7778,0,0,-0.7863,-0.7855,-0.7855,-0.7848,-0.7842,-0.7841,-0.7827,-0.7826,-0.7825,-0.7809,-0.781,-0.7804,-0.7796,-0.7799,-0.7799,-0.7794,-0.7807,-0.7801,-0.7803,-0.7802,-0.7804,-0.7807,-0.7809,-0.7779,-0.7779,-0.7778,0,0,-0.7879,-0.7873,-0.7876,-0.7871,-0.7863,-0.7855,-0.7855,-0.7845,-0.784,-0.784,-0.7828,-0.7827,-0.7822,-0.7817,-0.7814,-0.783,-0.782,-0.7829,-0.7841,-0.7843,-0.7846,-0.7847,-0.7853,-0.7855,-0.783,-0.783,-0.783,0,-0.7892,-0.789,-0.7878,-0.7878,-0.7875,-0.7862,-0.7864,-0.786,-0.7851,-0.7849,-0.7843,-0.7837,-0.7831,-0.7833,-0.7837,-0.7835,-0.7835,-0.783,-0.7846,-0.7848,-0.7849,-0.7854,-0.7856,-0.7831,-0.7831,-0.7831,-0.7831,0,-0.7905,-0.7904,-0.7907,-0.7899,-0.7897,-0.7898,-0.7887,-0.7886,-0.7878,-0.7871,-0.7872,-0.7864,-0.7859,-0.7859,-0.7851,-0.786,-0.7857,-0.7849,-0.7838,-0.7853,-0.7858,-0.786,-0.7832,-0.7832,-0.7832,-0.7832,0,0,-0.7931,-0.7918,-0.7919,-0.7916,-0.7906,-0.7905,-0.7906,-0.7901,-0.7901,-0.7896,-0.7896,-0.7893,-0.7886,-0.7882,-0.7874,-0.7877,-0.7889,-0.7868,-0.7868,-0.7872,-0.7898,-0.7904,-0.7906,-0.7884,-0.7884,-0.7884,-0.7899,0,-0.7945,-0.7946,-0.7936,-0.794,-0.7939,-0.7926,-0.7927,-0.7922,-0.7915,-0.7914,-0.7907,-0.7904,-0.7895,-0.7893,-0.7895,-0.7887,-0.7894,-0.7886,-0.7884,-0.7884,-0.7885,-0.7908,-0.7914,-0.7928,-0.79,-0.7901,-0.7901,0,-0.7961,-0.7957,-0.7961,-0.7952,-0.7951,-0.7952,-0.7947,-0.7946,-0.7939,-0.7935,-0.7931,-0.7922,-0.7923,-0.7914,-0.7914,-0.7909,-0.7908,-0.7904,-0.7905,-0.7903,-0.7893,-0.7907,-0.7932,-0.7934,-0.7903,-0.7903,-0.7903,0,-0.798,-0.7975,-0.7977,-0.7974,-0.7964,-0.7965,-0.7961,-0.7954,-0.7952,-0.7948,-0.7947,-0.7943,-0.7941,-0.7938,-0.7928,-0.7922,-0.793,-0.792,-0.7926,-0.7927,-0.7928,-0.7928,-0.7952,-0.7928,-0.7928,-0.7928,-0.7928,0,-0.7996,-0.7998,-0.7985,-0.7986,-0.7989,-0.7978,-0.7981,-0.7975,-0.797,-0.7969,-0.7959,-0.7959,-0.7946,-0.7945,-0.7938,-0.794,-0.7939,-0.7935,-0.7933,-0.7936,-0.7936,-0.7934,-0.7932,-0.7928,-0.7928,-0.7928,-0.7928,0,-0.8016,-0.8008,-0.8008,-0.7999,-0.7997,-0.7999,-0.7991,-0.7991,-0.7985,-0.7985,-0.7984,-0.7974,-0.7972,-0.7963,-0.7958,-0.7953,-0.7958,-0.7954,-0.796,-0.7958,-0.7965,-0.7964,-0.7988,-0.7991,-0.7966,-0.7966,-0.7966,0,-0.8027,-0.8029,-0.8019,-0.8019,-0.8015,-0.8014,-0.8012,-0.8002,-0.8,-0.7994,-0.7995,-0.7992,-0.799,-0.7987,-0.7979,-0.7976,-0.7972,-0.7981,-0.7971,-0.7974,-0.7972,-0.7972,-0.7972,-0.7982,-0.7983,-0.7983,-0.7983,0,-0.8046,-0.8042,-0.804,-0.8036,-0.8035,-0.8031,-0.8027,-0.8027,-0.8016,-0.8015,-0.8013,-0.8011,-0.8007,-0.8005,-0.8,-0.7996,-0.7988,-0.7987,-0.7988,-0.799,-0.7993,-0.7991,-0.7965,-0.7986,-0.7985,-0.7985,-0.7985,-0.7985,-0.8062,-0.8063,-0.8057,-0.8055,-0.8051,-0.8048,-0.8048,-0.8042,-0.804,-0.8036,-0.803,-0.8029,-0.8024,-0.8017,-0.8014,-0.8013,-0.8008,-0.801,-0.801,-0.8011,-0.8012,-0.7994,-0.8012,-0.8012,-0.8012,-0.8012,-0.8012,0,-0.8081,-0.8076,-0.8075,-0.807,-0.8068,-0.8061,-0.8057,-0.8056,-0.8055,-0.8051,-0.8049,-0.8047,-0.8045,-0.8037,-0.8034,-0.8035,-0.8031,-0.8034,-0.8034,-0.8033,-0.8017,-0.8016,-0.8038,-0.8038,-0.8038,-0.8038,-0.8038,-0.8038,-0.809,-0.8092,-0.8087,-0.8087,-0.8082,-0.8081,-0.8079,-0.8076,-0.8073,-0.8071,-0.8069,-0.8065,-0.8059,-0.8056,-0.8054,-0.8052,-0.8051,-0.8056,-0.8052,-0.8037,-0.8034,-0.8032,-0.8031,-0.8056,-0.8056,-0.8069,-0.8069,-0.8069]}]]